Home > Weather > Oslo > Past weeks

Flag for Norway Past Weather in Oslo, Norway — Yesterday and Last 2 Weeks

Now
61 °F

Cool.


Feels Like: 61 °F
Forecast: 61 / 71 °F
Wind: 5 mph from South

Location: Oslo-Blindern

Current Time: Aug 24, 2016 at 8:17:13 PM

Latest Report: Aug 24, 2016 at 7:00 PM


Visibility: 28 mi

Pressure: 30.17 "Hg

Humidity: 85%

Dew Point: 56 °F

Location of OsloLocation

Past Weather in Oslo — Graph

°F

Oslo Temperature Yesterday

Maximum temperature yesterday: 73 °F (at 4:00 PM)
Minimum temperature yesterday: 57 °F (at 7:00 AM)
Average temperature yesterday: 64 °F

High & Low Weather Summary for the Past Weeks

 TemperatureHumidityPressure
High74 °F (Aug 17, 4:00 PM)98% (Aug 21, 7:00 AM)30.26 "Hg (Aug 21, 7:00 AM)
Low44 °F (Aug 12, 5:00 AM)34% (Aug 17, 3:00 PM)29.50 "Hg (Aug 9, 8:00 PM)
Average60 °F71%29.95 "Hg
* Reported Aug 9 8:00 PM — Aug 24 7:00 PM, Oslo, Weather by CustomWeather, © 2016

Note: Actual official high and low records may vary slightly from our data, if they occured in-between our weather recording intervals... More about our weather records

Advertising

Oslo Weather History for the Previous 24 Hours

Scroll right to see more
 ConditionsComfort  
Time TempWeatherWind HumidityBarometerVisibility
7:00 PM
Wed, Aug 24
61 °FCool.5 mph85%30.17 "Hg28 mi
6:00 PM62 °FCool.6 mph84%30.19 "HgN/A
5:00 PM62 °FLow clouds.6 mph85%30.19 "Hg31 mi
4:00 PM62 °FCool.6 mph87%30.20 "Hg19 mi
3:00 PM62 °FCool.6 mph80%30.22 "HgN/A
2:00 PM64 °FOvercast.3 mph74%30.22 "Hg43 mi
1:00 PM64 °FMild.5 mph73%30.22 "HgN/A
12:00 PM63 °FMild.5 mph74%30.24 "Hg31 mi
11:00 AM63 °FOvercast.3 mph74%30.24 "Hg43 mi
10:00 AM61 °FCool.3 mph77%30.25 "HgN/A
9:00 AM60 °FCool.2 mph85%30.26 "HgN/A
8:00 AM60 °FLow clouds.2 mph88%30.25 "Hg40 mi
7:00 AM60 °FCool.3 mph89%30.25 "HgN/A
6:00 AM60 °FCool.2 mph93%30.24 "HgN/A
5:00 AM60 °FCool.2 mph92%30.24 "Hg19 mi
4:00 AM60 °FCool.2 mph91%30.24 "Hg22 mi
3:00 AM60 °FCool.2 mph91%30.24 "Hg19 mi
2:00 AM60 °FCool.2 mph92%30.24 "Hg14 mi
1:00 AM61 °FCool.2 mph91%30.24 "HgN/A
12:00 AM61 °FCool.2 mph90%30.24 "Hg22 mi
11:00 PM
Tue, Aug 23
63 °FMild.2 mph85%30.23 "Hg25 mi
10:00 PM63 °FMild.2 mph83%30.22 "Hg31 mi
9:00 PM65 °FMild.3 mph77%30.22 "HgN/A
8:00 PM67 °FPartly sunny.3 mph73%30.20 "Hg43 mi
Weather by CustomWeather, © 2016

See weather overviewHow to use our weather pages